User: anonymous   Login
Location: Unspecified
(0.0000°N, 0.0000°E)
Time: 07:33:23
(UTC+00:00)
Language:

GOMX4-A - Orbit

View from above orbital plane
View from above orbital plane
View from above satellite
View from above satellite

Ground track
Ground track

The orbit data is extracted from the following two-line orbital elements,

1 43197U 18015F   23088.93076358  .00026727  00000-0  75132-3 0  9996
2 43197  97.5664 239.3831 0015389 126.0885 332.6589 15.36369101286915
Epoch (UTC): 29 March 2023 22:20:17
Eccentricity: 0.0015389
inclination: 97.5664°
perigee height: 446 km
apogee height: 467 km
right ascension of ascending node: 239.3831°
argument of perigee: 126.0885°
revolutions per day: 15.36369101
mean anomaly at epoch: 332.6589°
orbit number at epoch: 28691

The dashed part of the orbit path shows where the satellite is in the earth's shadow,  

DLR